Kuchera_Ratio
2.4 1.0 2.3 2.5 0.6 0.0 0.0 0.0 0.0 0.0 0.0 0.0 0.0 0.0 0.0 0.0 0.0 0.0 0.0 0.0 0.0 0.0 0.0 0.0 0.0 0.0 0.0
6.4 5.7 4.8 2.7 2.3 4.5 2.6 0.0 1.4 0.0 0.0 0.0 0.0 0.0 0.0 0.0 0.0 0.0 0.0 0.0 0.0 0.0 0.0 0.0 0.0 0.0 0.0
8.6 4.6 4.2 3.1 8.1 5.1 5.1 4.4 1.5 0.0 0.0 0.0 0.0 0.0 0.0 0.0 0.0 0.0 0.0 0.0 0.0 0.0 0.0 0.0 0.0 0.0 0.0
9.1 9.5 7.5 6.6 8.0 9.7 10.6 7.6 8.3 2.7 2.6 1.0 0.0 0.0 0.0 0.0 0.0 0.0 0.0 0.0 0.0 0.0 0.0 0.0 0.0 0.0 0.0
10.9 9.8 12.0 11.2 12.3 10.6 12.2 10.5 10.0 8.4 9.2 8.2 7.4 6.9 6.2 2.5 1.8 0.5 0.0 0.0 0.0 0.0 0.0 0.0 0.0 0.0 0.0
11.5 12.6 12.5 12.1 11.2 12.2 12.6 14.5 15.3 7.9 11.6 11.3 7.8 9.9 8.4 7.4 2.4 0.6 0.0 0.0 0.0 0.0 0.0 0.0 0.0 0.0 0.0
12.4 12.5 12.5 12.1 12.1 13.0 13.5 13.7 14.2 11.5 12.0 13.8 10.3 12.4 9.1 6.2 2.7 1.9 0.8 0.0 0.0 0.0 0.0 0.0 0.0 0.0 0.0
8.4 8.3 8.4 7.7 8.8 9.8 12.2 13.2 12.7 12.0 10.8 15.8 12.6 13.5 11.4 10.0 4.4 3.0 1.8 0.7 0.0 0.0 0.0 0.0 0.0 0.0 0.0
3.2 3.1 3.5 3.7 5.4 11.0 14.3 15.4 16.2 14.7 12.5 14.3 14.5 14.6 13.5 13.1 10.5 4.4 2.4 0.8 0.0 0.6 0.0 0.0 0.0 0.0 0.0
11.5 10.1 8.7 9.5 6.0 10.5 13.6 16.2 16.3 16.8 13.0 15.2 15.1 14.6 15.7 12.3 12.6 11.5 9.2 4.2 1.9 1.1 0.3 0.3 0.0 2.9 5.4
13.2 12.8 12.2 12.1 12.0 12.1 12.8 14.3 15.9 16.2 12.7 13.0 14.4 14.4 14.9 15.0 12.9 12.8 11.6 11.1 9.7 9.6 5.7 4.3 3.1 3.2 7.4
14.1 14.0 14.2 14.3 13.7 13.2 12.9 13.2 13.0 13.9 12.9 13.2 14.6 14.3 14.5 15.1 15.6 13.3 13.2 12.4 11.3 12.0 11.3 7.5 3.9 2.2 0.9
15.0 15.0 14.4 14.0 13.8 13.8 13.2 12.9 12.9 12.7 12.3 12.3 13.0 13.3 13.7 14.9 16.1 15.8 14.9 12.9 11.5 10.7 9.4 8.5 7.6 7.2 8.3
15.2 14.4 13.8 14.3 14.7 14.1 15.0 14.6 15.0 14.0 11.1 10.4 11.9 12.8 14.9 15.4 15.6 16.3 14.2 14.7 11.0 9.7 8.0 7.1 6.2 5.3 4.5
15.2 15.3 15.0 14.8 14.8 14.2 14.8 14.7 15.7 15.1 14.1 12.4 11.2 12.1 14.0 15.5 16.1 14.5 14.0 12.3 10.1 8.1 7.7 7.8 6.3 5.6 3.0
15.6 15.7 15.9 15.8 16.0 14.6 14.7 15.0 15.2 14.4 14.2 13.5 13.5 14.2 14.6 13.4 11.8 13.4 11.2 11.9 9.7 7.7 7.4 8.4 8.6 6.1 3.5
16.3 16.0 15.9 16.4 15.5 15.9 15.3 14.7 15.0 13.9 13.8 13.8 14.3 15.3 16.5 16.6 13.7 7.7 11.4 9.1 9.2 8.4 7.5 7.9 8.5 7.4 3.6